EN

Hourly Weather Labno

Today, 4 August, Wednesday

Time Temperature Precipitation Wind Pressure Humidity
00:00 +14°C° 0 mm 1 mps 752 mmHg 87%
01:00 +13°C° 0 mm 1 mps 752 mmHg 88%
02:00 +13°C° 0 mm 1 mps 752 mmHg 88%
03:00 +13°C° 0 mm 1 mps 752 mmHg 89%
04:00 +11°C° 0 mm 0 mps 752 mmHg 89%
05:00 +13°C° 0 mm 0 mps 752 mmHg 85%
06:00 +14°C° 0 mm 0 mps 753 mmHg 81%
07:00 +16°C° 0 mm 0 mps 753 mmHg 76%
08:00 +17°C° 0.1 mm 0 mps 753 mmHg 70%
09:00 +19°C° 0.1 mm 0 mps 753 mmHg 64%
10:00 +22°C° 0.1 mm 1 mps 753 mmHg 58%
11:00 +22°C° 0.5 mm 1 mps 753 mmHg 58%
12:00 +23°C° 0.5 mm 1 mps 752 mmHg 58%
13:00 +23°C° 0.5 mm 1 mps 752 mmHg 57%
14:00 +22°C° 0.6 mm 1 mps 752 mmHg 60%
15:00 +22°C° 0.6 mm 1 mps 752 mmHg 63%
16:00 +21°C° 0.6 mm 1 mps 752 mmHg 66%
17:00 +20°C° 0.4 mm 1 mps 752 mmHg 71%
18:00 +19°C° 0.4 mm 1 mps 752 mmHg 75%
19:00 +18°C° 0.4 mm 1 mps 752 mmHg 80%
20:00 +16°C° 0 mm 1 mps 752 mmHg 82%
21:00 +16°C° 0 mm 1 mps 752 mmHg 85%
22:00 +15°C° 0 mm 1 mps 752 mmHg 88%
23:00 +15°C° 0 mm 1 mps 752 mmHg 88%

Tomorrow, 5 August, Thursday

Time Temperature Precipitation Wind Pressure Humidity
00:00 +15°C° 0 mm 1 mps 752 mmHg 89%
01:00 +14°C° 0 mm 1 mps 752 mmHg 89%
02:00 +14°C° 0 mm 1 mps 752 mmHg 90%
03:00 +14°C° 0 mm 1 mps 752 mmHg 90%
04:00 +14°C° 0 mm 1 mps 752 mmHg 90%
05:00 +15°C° 0 mm 1 mps 752 mmHg 87%
06:00 +16°C° 0 mm 1 mps 752 mmHg 84%
07:00 +18°C° 0 mm 1 mps 752 mmHg 80%
08:00 +19°C° 0 mm 2 mps 751 mmHg 74%
09:00 +20°C° 0 mm 2 mps 751 mmHg 67%
10:00 +23°C° 0 mm 2 mps 751 mmHg 60%
11:00 +22°C° 0 mm 3 mps 751 mmHg 56%
12:00 +24°C° 0 mm 3 mps 751 mmHg 52%
13:00 +25°C° 0 mm 3 mps 750 mmHg 48%
14:00 +24°C° 0 mm 3 mps 750 mmHg 53%
15:00 +22°C° 0 mm 3 mps 750 mmHg 58%
16:00 +22°C° 0 mm 3 mps 750 mmHg 62%
17:00 +21°C° 0 mm 3 mps 750 mmHg 65%
18:00 +20°C° 0 mm 3 mps 749 mmHg 67%
19:00 +19°C° 0 mm 3 mps 749 mmHg 69%
20:00 +18°C° 0 mm 3 mps 749 mmHg 73%
21:00 +18°C° 0 mm 3 mps 749 mmHg 77%
22:00 +17°C° 0 mm 3 mps 749 mmHg 80%
23:00 +16°C° 0 mm 3 mps 749 mmHg 85%

Day after tomorrow, 6 August, Friday

Time Temperature Precipitation Wind Pressure Humidity
00:00 +14°C° 0 mm 3 mps 749 mmHg 89%
01:00 +13°C° 0 mm 3 mps 749 mmHg 94%
02:00 +13°C° 0 mm 3 mps 748 mmHg 94%
03:00 +13°C° 0 mm 3 mps 748 mmHg 94%
04:00 +12°C° 0 mm 4 mps 748 mmHg 94%
05:00 +13°C° 0 mm 4 mps 748 mmHg 88%
06:00 +14°C° 0 mm 5 mps 748 mmHg 82%
07:00 +15°C° 0 mm 5 mps 748 mmHg 77%
08:00 +16°C° 0 mm 5 mps 748 mmHg 71%
09:00 +19°C° 0 mm 6 mps 748 mmHg 65%
10:00 +20°C° 0 mm 6 mps 748 mmHg 60%
11:00 +21°C° 0 mm 5 mps 748 mmHg 58%
12:00 +21°C° 0 mm 5 mps 748 mmHg 57%
13:00 +22°C° 0 mm 5 mps 747 mmHg 56%
14:00 +21°C° 0 mm 4 mps 747 mmHg 59%
15:00 +21°C° 0 mm 4 mps 748 mmHg 62%
16:00 +21°C° 0 mm 4 mps 748 mmHg 65%
17:00 +20°C° 0.1 mm 3 mps 748 mmHg 72%
18:00 +18°C° 0.1 mm 2 mps 748 mmHg 79%
19:00 +17°C° 0.1 mm 2 mps 748 mmHg 86%
20:00 +18°C° 0 mm 1 mps 748 mmHg 87%
21:00 +16°C° 0 mm 1 mps 748 mmHg 89%
22:00 +16°C° 0 mm 1 mps 748 mmHg 90%
23:00 +15°C° 0 mm 1 mps 748 mmHg 90%

7 August, Saturday

Time Temperature Precipitation Wind Pressure Humidity
00:00 +15°C° 0 mm 1 mps 748 mmHg 90%
01:00 +15°C° 0 mm 1 mps 748 mmHg 90%
02:00 +15°C° 0 mm 1 mps 748 mmHg 91%
03:00 +14°C° 0 mm 1 mps 748 mmHg 91%
04:00 +14°C° 0 mm 1 mps 748 mmHg 91%
05:00 +16°C° 0 mm 1 mps 749 mmHg 86%
06:00 +17°C° 0 mm 2 mps 749 mmHg 80%
07:00 +18°C° 0 mm 2 mps 749 mmHg 75%
08:00 +19°C° 0 mm 2 mps 749 mmHg 68%
09:00 +21°C° 0 mm 2 mps 749 mmHg 61%
10:00 +22°C° 0 mm 3 mps 749 mmHg 53%
11:00 +24°C° 0 mm 3 mps 749 mmHg 50%
12:00 +24°C° 0 mm 3 mps 749 mmHg 48%
13:00 +25°C° 0 mm 4 mps 749 mmHg 45%
14:00 +25°C° 0 mm 4 mps 749 mmHg 45%
15:00 +23°C° 0 mm 4 mps 749 mmHg 46%
16:00 +23°C° 0 mm 4 mps 749 mmHg 47%
17:00 +21°C° 0 mm 3 mps 749 mmHg 54%
18:00 +19°C° 0 mm 3 mps 749 mmHg 61%
19:00 +17°C° 0 mm 2 mps 749 mmHg 68%
20:00 +16°C° 0 mm 2 mps 750 mmHg 70%
21:00 +15°C° 0 mm 1 mps 750 mmHg 73%
22:00 +14°C° 0 mm 1 mps 750 mmHg 75%
23:00 +14°C° 0 mm 1 mps 750 mmHg 75%

8 August, Sunday

Time Temperature Precipitation Wind Pressure Humidity
00:00 +14°C° 0 mm 1 mps 750 mmHg 75%
01:00 +14°C° 0 mm 2 mps 750 mmHg 74%
02:00 +14°C° 0 mm 2 mps 750 mmHg 75%
03:00 +14°C° 0 mm 2 mps 750 mmHg 76%
04:00 +14°C° 0 mm 2 mps 750 mmHg 77%
05:00 +16°C° 0 mm 2 mps 750 mmHg 73%
06:00 +18°C° 0 mm 3 mps 750 mmHg 69%
07:00 +20°C° 0 mm 3 mps 750 mmHg 65%
08:00 +21°C° 0 mm 3 mps 750 mmHg 63%
09:00 +22°C° 0 mm 3 mps 750 mmHg 60%
10:00 +25°C° 0 mm 3 mps 750 mmHg 57%
11:00 +24°C° 0.1 mm 3 mps 751 mmHg 62%
12:00 +24°C° 0.1 mm 3 mps 751 mmHg 66%
13:00 +22°C° 0.1 mm 3 mps 751 mmHg 70%
14:00 +21°C° 0.2 mm 3 mps 751 mmHg 77%
15:00 +20°C° 0.2 mm 2 mps 752 mmHg 83%
16:00 +19°C° 0.2 mm 2 mps 752 mmHg 89%
17:00 +20°C° 0 mm 1 mps 752 mmHg 90%
18:00 +19°C° 0 mm 1 mps 753 mmHg 91%
19:00 +19°C° 0 mm 1 mps 753 mmHg 92%
20:00 +19°C° 0 mm 1 mps 753 mmHg 93%
21:00 +18°C° 0 mm 1 mps 753 mmHg 93%
22:00 +18°C° 0 mm 1 mps 754 mmHg 93%
23:00 +18°C° 0 mm 1 mps 754 mmHg 93%

9 August, Monday

Time Temperature Precipitation Wind Pressure Humidity
00:00 +16°C° 0 mm 1 mps 754 mmHg 92%
01:00 +16°C° 0 mm 1 mps 754 mmHg 91%
02:00 +16°C° 0 mm 1 mps 754 mmHg 92%
03:00 +16°C° 0 mm 2 mps 754 mmHg 92%
04:00 +16°C° 0 mm 2 mps 754 mmHg 92%
05:00 +17°C° 0 mm 2 mps 754 mmHg 89%
06:00 +18°C° 0 mm 2 mps 754 mmHg 87%
07:00 +19°C° 0 mm 2 mps 754 mmHg 84%
08:00 +20°C° 0.1 mm 3 mps 754 mmHg 75%
09:00 +22°C° 0.1 mm 3 mps 755 mmHg 66%
10:00 +23°C° 0.1 mm 4 mps 755 mmHg 57%
11:00 +25°C° 0 mm 4 mps 755 mmHg 53%
12:00 +26°C° 0 mm 4 mps 755 mmHg 50%
13:00 +26°C° 0 mm 4 mps 755 mmHg 46%
14:00 +26°C° 0.1 mm 4 mps 755 mmHg 50%
15:00 +25°C° 0.1 mm 4 mps 755 mmHg 54%
16:00 +23°C° 0.1 mm 4 mps 755 mmHg 58%
17:00 +21°C° 0.6 mm 3 mps 755 mmHg 68%
18:00 +19°C° 0.6 mm 2 mps 755 mmHg 77%
19:00 +17°C° 0.6 mm 2 mps 755 mmHg 87%
20:00 +18°C° 0.1 mm 1 mps 756 mmHg 88%
21:00 +16°C° 0.1 mm 1 mps 756 mmHg 89%
22:00 +16°C° 0.1 mm 1 mps 756 mmHg 90%
23:00 +16°C° 0.1 mm 1 mps 756 mmHg 90%
Show more